Wind_Speed
27 25 23 22 20 17 14 13 15 18 18 15 13 15 17 18 19 18 18 18 19 19 18 19 19 19 19 19 19 19 20 20 19 19 20 20 20 19 17 16 14 14 14 15 16 16 16 16 16 16 17 18 19 20 22 23 24 25 26 28 29 30 31
23 22 20 20 20 17 14 14 15 17 15 12 10 11 14 15 16 17 18 19 20 20 20 20 20 20 19 19 19 20 20 21 21 21 22 21 20 18 16 15 14 14 15 16 16 16 15 16 16 16 17 19 21 23 24 26 26 27 28 30 31 32 33
20 20 20 21 20 16 14 15 16 15 11 9 7 7 9 12 14 15 16 18 18 18 18 18 19 19 19 19 20 20 21 22 22 22 22 21 20 18 15 14 14 14 15 15 15 15 16 17 17 17 18 21 23 24 26 26 27 28 29 30 30 30 32
20 20 21 21 21 19 18 16 16 14 10 6 5 5 7 9 11 12 13 13 14 14 15 16 18 18 18 18 19 20 20 21 21 21 20 20 18 17 15 14 15 15 14 14 14 16 17 18 18 19 20 21 23 24 25 26 27 29 30 29 28 28 31
22 18 16 18 20 21 21 19 17 14 9 6 5 5 7 8 9 10 9 10 11 12 14 15 16 16 16 17 17 18 18 18 18 17 17 16 16 15 15 15 14 13 13 14 15 17 19 19 20 20 21 21 22 23 24 25 27 29 30 29 29 29 31
24 20 12 15 18 20 21 19 17 15 11 8 8 8 9 9 10 9 9 9 10 11 12 13 14 14 15 16 16 16 15 14 14 14 14 14 14 14 14 14 13 12 13 15 17 18 18 19 19 20 21 22 22 23 24 26 27 29 30 30 31 32 34
27 23 15 20 21 21 22 21 19 17 14 12 11 12 13 12 11 10 9 9 9 11 11 12 13 13 13 14 14 14 13 12 12 13 13 12 13 13 13 12 13 14 15 17 17 17 16 17 18 19 21 23 25 25 27 28 28 28 29 31 33 34 35
32 32 24 24 26 25 26 25 23 21 17 15 14 14 14 14 13 11 10 10 10 10 10 11 12 13 13 13 14 14 13 12 12 12 12 11 12 12 12 13 15 16 17 16 15 15 16 18 19 20 23 25 26 27 28 29 29 30 30 31 34 35 36
36 36 29 26 26 27 27 25 25 24 19 16 15 15 16 16 16 14 12 11 12 11 11 11 12 13 13 13 14 14 13 12 11 11 11 11 12 13 13 15 16 17 17 15 14 15 17 19 21 22 24 26 27 28 29 30 30 32 32 33 34 35 37
29 28 27 26 25 26 28 27 27 27 22 17 16 16 17 17 18 18 15 13 14 14 14 13 12 13 14 13 13 13 12 10 10 11 11 11 13 15 15 16 16 17 17 16 16 17 18 20 22 24 25 27 28 29 30 30 30 32 33 33 34 36 39
28 28 30 30 26 25 28 29 28 28 25 19 16 16 16 17 18 20 18 16 15 16 17 15 13 12 14 14 13 12 10 10 10 11 12 13 15 16 15 14 14 15 17 18 19 18 19 20 23 25 26 27 28 30 32 32 31 33 34 34 35 37 39
32 33 33 31 27 26 30 30 28 28 27 22 18 16 15 16 18 19 20 18 17 18 18 17 14 12 13 15 13 11 10 10 11 12 14 15 15 14 13 12 12 15 18 20 21 21 21 23 25 27 28 28 30 31 33 34 34 35 35 36 36 36 37
34 32 33 33 29 27 31 33 31 30 29 24 21 19 18 17 17 19 21 21 19 19 19 19 17 13 13 15 14 12 11 12 12 13 14 14 13 12 12 13 14 16 18 19 21 23 24 25 26 28 30 31 32 33 35 36 36 37 37 38 37 36 36
36 34 36 35 31 30 33 34 33 33 32 27 23 23 21 19 19 19 21 21 21 20 20 20 18 15 14 16 15 12 11 13 13 13 13 13 13 13 14 16 17 17 17 18 20 23 25 26 26 28 32 34 35 36 37 37 38 39 39 39 39 37 37
39 38 39 36 31 30 33 35 36 36 34 30 27 26 23 21 20 19 20 21 20 20 19 19 20 18 15 17 16 12 12 13 12 12 13 13 13 14 15 16 17 17 18 18 20 23 25 26 27 29 31 34 37 39 39 39 40 41 41 40 39 39 38
40 40 42 41 37 35 35 37 39 38 36 34 31 29 27 24 22 21 21 21 20 20 20 19 20 19 17 17 17 14 13 13 13 13 13 13 13 14 14 15 16 18 20 21 22 25 28 29 30 30 31 34 37 41 41 42 43 44 42 40 40 40 38
41 41 41 40 40 40 41 41 42 40 39 38 36 34 31 27 25 24 24 23 21 22 21 20 21 21 18 17 17 15 13 13 13 13 13 13 12 13 14 16 19 22 24 26 27 29 32 34 34 33 34 36 38 41 43 44 45 47 44 41 40 40 37
42 41 40 40 41 42 43 44 44 42 41 40 39 38 34 29 27 27 26 24 22 22 22 20 21 21 19 18 18 16 15 15 15 15 14 14 13 15 18 20 23 25 27 29 31 33 35 37 37 37 38 39 40 43 45 45 47 48 47 43 40 38 37
40 41 41 41 41 42 43 44 45 44 43 42 41 39 37 32 30 28 26 24 23 23 23 21 20 21 20 19 18 17 17 19 18 17 16 16 16 18 20 22 24 26 28 31 33 35 37 39 40 41 42 43 44 46 48 48 48 48 47 43 39 37 36
37 40 44 43 40 39 40 40 43 44 44 43 42 40 38 35 32 29 28 26 25 24 24 22 20 20 19 18 17 18 20 22 22 21 20 19 20 21 22 24 26 28 30 32 35 37 39 41 42 44 45 46 47 49 49 49 48 47 45 41 37 35 36
40 40 44 47 44 40 37 36 38 43 45 44 43 42 41 38 34 31 29 28 27 26 25 24 20 19 18 16 16 17 19 21 23 23 23 22 22 24 24 26 28 30 31 34 36 38 41 43 45 47 48 49 50 51 51 50 48 44 40 36 34 34 35
52 49 48 49 47 44 44 40 36 37 41 45 45 45 43 41 39 35 30 28 28 27 26 25 21 20 19 18 17 17 18 20 22 23 24 24 25 26 27 29 30 32 34 36 37 40 42 45 48 50 50 51 53 53 52 50 47 42 37 34 33 33 34
57 57 57 56 55 54 54 51 45 39 38 43 46 47 46 46 44 38 32 30 30 29 28 26 23 21 21 20 20 20 21 22 23 24 26 27 28 29 30 31 33 34 36 38 40 42 44 47 50 51 52 53 54 54 53 51 47 41 37 34 34 34 34
61 61 61 60 60 58 57 56 55 48 42 42 45 46 47 49 49 42 35 32 32 31 29 28 26 24 23 22 23 24 25 26 27 28 29 31 32 33 33 34 35 36 37 39 42 44 46 48 51 52 53 55 55 55 54 52 46 42 39 37 36 36 35
52 58 60 59 56 54 55 58 58 51 46 46 47 46 47 51 52 46 37 33 33 32 30 29 28 26 25 26 27 28 29 30 31 32 34 35 36 37 37 37 38 38 38 40 43 45 46 49 51 52 53 55 55 54 53 49 44 42 40 38 37 37 36
40 47 55 56 51 49 53 56 54 49 47 48 49 48 47 50 53 48 39 35 35 34 32 31 30 29 29 31 32 31 32 33 34 37 39 40 40 41 40 39 39 39 40 42 44 46 47 50 52 52 52 53 53 52 49 45 42 42 41 38 37 37 36
38 42 46 47 48 51 54 52 46 44 47 49 49 49 50 52 53 49 41 38 37 36 34 34 32 32 34 35 36 35 35 36 38 41 43 44 46 46 42 39 40 41 42 44 45 46 49 52 54 54 52 50 50 49 46 42 41 43 42 39 37 37 37
39 42 41 41 47 52 53 48 43 42 47 50 51 51 53 53 53 49 43 40 39 37 36 35 34 34 36 37 39 39 39 40 41 43 46 49 51 48 43 41 43 44 44 45 46 46 49 52 54 54 53 50 48 47 46 43 42 42 41 37 36 37 38
37 42 42 41 46 49 47 45 44 44 47 51 53 53 54 53 52 49 45 42 40 38 37 36 36 36 37 38 39 39 40 41 42 44 48 52 51 49 46 45 45 46 46 46 46 47 50 52 53 54 53 51 49 47 47 45 43 41 39 36 35 37 38
34 40 43 41 42 46 45 43 45 47 50 53 55 55 54 53 51 49 46 44 41 39 38 38 38 39 39 39 39 40 41 43 44 45 49 52 52 51 50 47 46 47 47 47 47 48 51 52 53 53 53 51 50 48 48 46 43 41 39 37 37 39 40
36 41 46 42 41 46 49 47 48 51 54 56 57 56 54 52 50 49 47 44 42 40 40 40 41 41 41 40 41 41 42 44 45 47 51 54 55 55 53 48 47 48 48 47 48 49 51 51 52 53 52 51 50 49 48 47 44 42 41 40 40 41 41
39 43 46 45 45 49 52 52 53 56 58 58 57 55 53 51 49 48 46 43 42 41 42 44 44 43 43 42 42 42 44 46 47 49 53 57 58 60 57 51 47 48 48 47 48 49 50 51 52 52 52 51 50 50 49 48 46 44 43 42 41 42 42
41 45 47 49 51 52 51 51 54 57 58 58 57 54 52 49 46 45 44 44 44 44 45 46 45 44 43 43 43 44 46 48 50 52 55 57 59 62 60 51 44 45 48 48 48 49 50 51 52 52 52 52 51 50 50 49 47 45 43 42 42 42 42
41 46 48 50 52 52 51 48 49 51 53 55 55 52 48 45 43 43 45 45 46 46 46 46 45 44 44 44 45 47 48 50 52 53 52 51 52 53 48 42 40 44 48 49 49 50 50 51 52 53 52 51 50 50 49 49 48 46 44 44 44 43 41
40 44 46 47 48 49 48 45 42 42 43 45 47 47 46 45 45 46 46 46 46 46 46 46 45 45 45 46 47 49 51 51 51 48 46 46 46 45 40 39 42 47 49 49 50 50 51 52 53 53 52 50 50 49 50 51 50 48 46 46 45 44 43
42 45 46 45 44 46 45 40 34 31 32 35 39 43 45 45 45 45 45 45 46 47 47 47 47 47 47 48 50 51 51 50 47 46 46 46 46 45 43 43 46 49 50 50 50 51 52 53 52 51 50 49 49 50 53 54 50 47 46 46 45 45 45
39 43 43 38 35 38 40 35 28 26 30 34 37 41 43 44 44 45 46 46 47 47 47 48 48 48 49 50 50 50 49 48 46 47 48 48 47 47 46 47 49 50 51 51 51 51 52 52 50 48 48 47 47 49 51 49 45 46 49 48 46 46 45
26 28 29 27 27 32 36 34 30 30 33 36 38 40 41 42 44 45 46 47 48 48 48 49 49 49 50 49 48 47 47 48 48 49 50 49 49 49 48 50 52 53 52 51 51 51 51 50 48 47 46 45 45 46 46 45 46 51 53 50 47 48 47
Wind_Direction
240 242 243 243 236 234 241 256 268 262 250 247 250 250 251 253 254 255 254 253 250 248 247 248 250 252 254 256 257 258 259 260 263 269 275 279 281 283 286 288 287 287 289 293 297 300 306 312 318 322 324 326 324 321 318 318 319 319 318 317 315 315 314
240 244 243 239 233 232 239 243 250 254 245 236 243 254 257 258 256 253 251 250 249 249 249 250 252 254 255 255 256 257 257 259 263 269 274 278 280 283 288 288 285 285 289 294 299 304 310 316 320 323 324 324 322 320 319 319 319 318 316 314 315 315 314
231 240 242 235 227 227 233 234 236 241 237 227 235 255 262 261 257 251 250 251 252 254 254 254 253 252 252 252 253 255 257 260 264 269 273 276 280 284 287 285 283 287 292 297 303 307 311 316 320 321 321 321 320 319 319 319 318 316 313 312 313 315 316
238 246 247 233 221 218 223 227 233 232 223 219 232 255 265 264 258 254 254 255 255 255 253 251 251 250 251 252 253 255 258 262 266 270 274 278 281 284 284 282 284 289 295 299 302 305 310 315 318 319 320 321 321 319 319 319 319 316 312 310 311 314 318
247 245 241 232 222 225 233 232 230 226 215 214 231 252 265 266 263 260 259 260 257 255 254 254 254 256 255 254 255 258 262 267 272 275 278 280 281 282 281 282 285 290 295 298 301 305 310 314 317 320 322 322 322 320 320 319 317 314 312 311 312 313 315
247 235 241 259 241 233 242 239 228 222 213 212 227 246 257 261 268 271 268 267 267 264 263 265 265 263 261 259 260 263 267 272 276 278 280 281 281 280 282 284 286 291 294 298 303 308 311 314 319 321 321 321 321 320 319 317 315 314 314 314 314 313 313
255 248 254 276 265 241 234 233 229 223 213 211 221 235 249 258 267 276 278 279 279 275 273 273 272 269 266 263 262 263 267 271 275 280 283 283 281 281 283 287 290 292 296 300 305 310 313 316 319 320 319 318 319 319 318 318 317 315 315 315 315 314 312
247 251 251 264 270 252 233 230 236 234 222 216 220 229 244 257 264 269 279 288 287 284 281 277 274 273 269 263 260 261 264 270 277 281 282 282 281 282 286 291 294 295 297 302 306 311 315 316 318 319 317 317 318 317 316 317 316 313 312 312 312 312 311
232 242 242 250 264 255 238 235 241 242 233 222 217 222 234 248 261 266 271 281 286 291 291 283 278 277 273 266 262 263 266 272 278 278 279 282 283 286 291 295 296 296 298 301 306 310 314 316 317 317 316 316 316 315 313 314 314 312 310 309 309 311 310
233 241 239 243 253 250 240 237 239 241 240 229 219 221 228 238 253 262 266 271 281 290 293 290 284 279 277 272 268 268 270 273 275 275 279 283 285 289 293 294 294 296 299 302 305 308 312 315 317 317 316 315 313 311 310 310 311 309 307 306 308 310 309
232 236 236 238 242 244 242 238 237 240 242 237 229 228 228 233 243 254 262 267 272 280 287 291 289 281 276 274 271 272 274 272 274 278 281 284 286 288 288 289 293 299 302 304 305 307 310 314 318 319 319 318 315 311 308 308 308 307 308 307 307 307 306
227 231 239 242 241 246 250 246 240 240 241 237 234 234 230 231 238 247 257 263 266 270 279 286 290 283 275 272 272 272 275 276 277 279 281 282 282 281 282 286 294 301 303 304 306 306 308 312 317 319 320 321 320 315 312 311 309 308 309 309 307 306 304
223 227 238 244 242 244 251 249 240 239 242 239 231 231 231 230 234 241 250 258 262 265 271 279 287 287 277 271 270 269 272 274 275 276 277 276 275 275 281 288 293 299 301 303 305 306 308 312 316 319 318 318 319 318 317 317 314 310 307 306 307 307 304
224 230 236 240 240 239 243 244 239 238 243 241 234 231 230 227 232 238 245 252 257 260 265 273 282 286 278 271 268 265 266 268 269 272 270 270 273 276 282 289 293 296 300 302 304 307 310 313 317 319 318 317 317 316 316 317 317 312 307 305 308 308 304
224 230 237 239 236 234 238 238 237 239 241 241 237 234 232 229 232 238 243 249 255 258 263 270 277 281 276 270 267 261 260 264 266 266 265 267 273 278 282 289 295 300 304 306 308 311 312 313 316 317 317 317 316 314 314 315 315 313 309 307 306 304 302
230 226 231 235 231 229 234 236 236 238 240 240 239 236 235 233 233 239 243 248 255 259 262 266 272 277 273 266 263 258 254 259 260 258 259 263 269 277 284 292 300 306 308 310 312 314 313 313 316 316 315 315 314 313 314 315 315 314 311 305 301 299 300
236 233 232 234 232 231 233 234 237 238 239 242 242 241 239 235 234 238 242 247 254 258 260 262 267 272 269 260 258 254 247 248 251 253 255 259 266 278 289 296 303 307 308 311 313 314 314 315 317 317 316 316 315 314 315 317 316 314 310 304 299 297 297
236 239 239 235 232 234 236 237 238 238 239 241 244 246 245 238 234 237 241 247 254 256 257 259 263 267 264 258 255 249 241 242 248 252 255 260 272 284 292 297 302 305 308 311 312 313 314 316 316 315 315 316 315 315 316 317 316 313 309 304 300 297 296
238 238 240 238 232 231 235 238 238 237 237 240 243 245 246 242 236 237 242 247 250 253 254 256 258 261 261 258 253 245 241 244 252 257 258 268 282 291 295 299 301 305 308 310 311 312 313 314 314 313 314 315 314 314 315 316 315 311 306 302 300 298 296
241 236 237 239 237 233 232 233 234 234 235 238 241 243 244 244 240 238 241 244 245 248 251 252 254 257 260 258 252 246 245 250 257 261 263 274 288 295 299 301 302 305 307 308 310 311 311 311 311 311 311 313 314 314 314 316 315 310 303 300 300 298 295
237 236 235 236 239 242 242 238 235 235 235 237 240 242 243 244 242 239 241 244 244 246 248 250 250 252 256 256 253 252 254 257 262 265 269 279 291 297 301 302 302 303 304 305 307 308 308 309 308 309 309 310 312 313 313 315 314 308 301 299 298 297 295
238 240 240 239 240 246 252 249 239 234 235 237 239 241 243 244 244 242 241 242 243 244 246 249 248 250 256 260 262 266 268 269 272 274 278 284 291 296 298 298 299 300 300 302 304 305 306 307 307 307 308 309 310 309 310 314 313 306 300 298 296 293 292
239 241 243 245 247 251 255 251 241 235 236 237 238 240 242 244 246 244 239 239 241 242 245 247 247 251 259 265 267 271 274 275 278 281 282 285 288 290 292 293 295 296 297 300 302 302 304 306 306 307 308 308 308 307 308 311 309 302 297 297 294 292 291
236 239 243 246 247 249 252 249 241 237 236 236 237 239 240 243 246 245 238 235 238 242 244 246 248 252 259 264 267 270 272 273 276 278 279 281 282 284 286 288 290 292 295 298 299 299 301 304 305 306 307 306 306 306 308 309 305 299 297 297 296 294 293
236 237 240 242 242 243 246 246 242 238 236 235 236 238 239 241 245 243 237 233 237 241 244 246 249 252 257 262 264 266 268 271 274 276 277 278 280 281 282 284 287 290 293 295 296 297 299 302 303 304 304 304 305 306 308 307 302 298 297 296 295 293 291
239 237 237 239 240 238 239 242 241 238 237 237 236 237 238 240 242 241 235 232 236 240 243 246 249 253 256 258 261 264 268 271 273 275 277 278 278 276 277 282 288 290 292 293 294 296 299 300 300 300 301 302 305 308 308 305 300 297 297 296 293 291 291
237 238 237 237 239 237 235 237 239 235 231 232 234 235 236 238 240 240 234 231 235 239 242 246 249 253 256 258 261 264 267 270 272 275 277 276 275 274 278 284 287 289 290 291 293 297 298 299 299 300 302 305 307 309 307 304 299 297 298 297 295 294 294
232 235 236 236 237 237 235 235 235 230 227 227 229 232 234 236 238 238 234 232 235 238 241 245 249 253 256 260 262 264 266 269 273 276 277 276 276 279 285 287 286 287 288 289 292 295 296 297 298 301 304 306 307 307 306 303 300 297 297 296 295 295 293
228 227 231 235 237 236 233 232 230 226 223 223 225 228 230 233 235 235 233 233 236 238 241 245 249 252 255 258 261 264 268 271 272 275 276 276 277 280 285 286 286 285 285 287 290 293 294 295 298 301 304 306 305 304 304 302 300 298 296 295 294 292 289
236 230 229 232 233 230 226 225 223 220 218 218 220 223 227 229 231 231 231 233 236 239 242 245 249 251 254 257 261 265 268 270 272 274 275 274 275 276 279 283 283 282 283 287 290 291 293 295 298 301 303 304 304 303 303 303 301 298 297 295 293 291 290
237 232 229 228 228 225 221 219 216 213 213 214 217 220 224 225 226 228 230 232 235 239 243 246 249 252 255 259 263 266 268 270 273 274 274 274 275 276 277 279 280 280 282 286 287 290 293 295 298 300 302 302 302 302 303 303 302 300 299 298 296 294 292
236 229 224 224 224 220 216 214 211 209 210 213 215 218 220 222 224 227 230 232 235 239 242 245 248 253 257 260 264 266 268 270 272 273 273 275 276 276 277 277 277 278 281 284 286 289 292 294 297 299 299 300 301 301 301 302 301 301 301 301 299 296 293
239 233 226 224 224 218 211 209 208 207 209 212 213 216 218 220 224 228 230 232 234 237 241 244 248 253 258 260 263 265 266 268 269 269 272 276 279 280 278 274 273 278 281 283 286 289 292 295 297 298 298 298 299 299 301 302 302 303 304 303 302 299 296
240 239 233 229 229 223 215 210 208 207 208 209 211 215 218 220 224 227 229 231 234 237 241 245 249 254 257 260 261 262 263 264 265 269 275 282 287 290 285 275 274 282 285 285 287 290 293 295 296 296 296 297 298 301 303 303 302 303 303 302 303 301 294
236 238 237 236 237 231 224 221 219 213 209 208 209 213 218 221 224 227 230 232 236 239 243 247 250 254 257 259 260 260 261 264 267 274 282 285 287 290 287 282 282 286 287 287 288 290 292 294 295 295 296 297 300 302 302 302 302 302 302 303 302 298 292
236 235 235 236 237 233 228 228 227 218 210 208 210 214 219 222 226 229 232 234 237 241 244 247 251 254 257 258 260 262 264 267 272 278 283 284 283 283 282 282 285 287 288 288 288 289 291 293 294 295 298 300 303 303 302 303 302 301 303 305 301 295 290
235 231 228 228 228 224 221 222 222 214 209 210 213 216 219 223 227 230 233 235 239 242 245 248 251 253 255 258 261 264 268 272 276 279 280 281 281 281 281 283 286 287 287 287 287 289 291 293 294 297 300 302 303 303 303 303 301 303 307 306 298 291 288
231 224 220 219 215 211 211 212 213 211 211 213 215 218 221 224 227 230 233 236 239 242 244 246 248 250 253 258 262 266 270 274 277 278 278 279 280 280 282 285 286 286 285 286 287 289 292 294 296 299 300 301 301 301 301 301 301 304 306 302 293 288 285
Height
5886 5888 5889 5891 5893 5895 5895 5897 5897 5898 5899 5898 5897 5897 5898 5900 5901 5903 5904 5904 5905 5905 5906 5907 5907 5908 5909 5909 5910 5910 5910 5911 5911 5911 5912 5912 5912 5913 5913 5914 5914 5914 5914 5914 5913 5913 5912 5911 5911 5910 5909 5908 5907 5905 5904 5903 5902 5900 5898 5897 5896 5895 5894
5884 5885 5888 5889 5891 5893 5893 5894 5896 5897 5897 5895 5894 5895 5896 5898 5899 5900 5901 5902 5902 5903 5904 5905 5905 5906 5906 5907 5907 5908 5908 5908 5909 5909 5909 5910 5910 5911 5912 5912 5912 5913 5912 5912 5911 5910 5910 5909 5909 5908 5907 5906 5905 5903 5902 5900 5899 5898 5896 5894 5893 5892 5891
5883 5883 5885 5887 5889 5891 5891 5891 5893 5894 5894 5893 5892 5893 5894 5896 5897 5898 5899 5899 5900 5901 5902 5902 5903 5903 5904 5905 5905 5906 5906 5906 5906 5907 5907 5907 5908 5909 5910 5910 5911 5911 5910 5910 5909 5908 5907 5907 5906 5906 5905 5904 5903 5901 5899 5898 5897 5896 5894 5892 5891 5890 5888
5880 5880 5882 5884 5886 5888 5888 5889 5890 5891 5891 5891 5890 5891 5893 5894 5895 5896 5897 5898 5898 5899 5900 5900 5900 5901 5902 5903 5903 5903 5903 5904 5904 5904 5905 5905 5906 5907 5908 5908 5908 5909 5908 5908 5907 5906 5905 5905 5904 5904 5903 5902 5901 5899 5898 5896 5895 5894 5892 5890 5889 5888 5886
5876 5878 5880 5882 5885 5886 5886 5887 5888 5888 5889 5889 5889 5890 5891 5893 5893 5895 5896 5896 5897 5897 5897 5898 5898 5899 5900 5900 5901 5901 5901 5902 5902 5902 5903 5904 5905 5905 5906 5906 5906 5907 5906 5906 5905 5904 5903 5902 5902 5901 5901 5900 5899 5897 5896 5894 5893 5891 5889 5888 5887 5885 5883
5871 5876 5880 5881 5883 5885 5885 5886 5885 5886 5886 5886 5888 5889 5890 5891 5892 5893 5894 5895 5895 5895 5896 5896 5897 5898 5898 5898 5899 5899 5899 5900 5900 5901 5901 5902 5903 5903 5904 5904 5904 5904 5904 5903 5903 5902 5901 5901 5900 5899 5898 5898 5897 5895 5894 5892 5891 5889 5887 5886 5884 5882 5880
5868 5873 5878 5878 5879 5882 5883 5883 5883 5883 5883 5884 5885 5887 5888 5890 5891 5892 5893 5893 5894 5894 5895 5895 5895 5896 5896 5896 5896 5897 5898 5898 5899 5899 5900 5900 5901 5901 5902 5902 5902 5902 5902 5901 5901 5900 5900 5899 5898 5898 5896 5895 5894 5893 5891 5890 5889 5887 5885 5884 5882 5880 5877
5868 5870 5876 5877 5877 5877 5878 5880 5881 5881 5880 5881 5883 5885 5887 5888 5889 5890 5891 5892 5892 5893 5893 5893 5894 5894 5894 5894 5895 5895 5896 5897 5897 5897 5898 5898 5899 5899 5900 5900 5900 5899 5899 5899 5899 5898 5897 5897 5896 5896 5894 5893 5892 5890 5889 5887 5886 5885 5883 5881 5879 5877 5875
5867 5870 5874 5875 5874 5874 5876 5878 5879 5879 5879 5879 5880 5883 5885 5886 5887 5888 5890 5890 5890 5891 5891 5892 5892 5892 5892 5892 5893 5893 5894 5895 5895 5896 5896 5897 5897 5897 5898 5898 5897 5897 5897 5897 5897 5896 5895 5894 5894 5893 5892 5891 5889 5888 5886 5885 5883 5882 5880 5879 5876 5874 5872
5865 5868 5871 5871 5871 5872 5874 5875 5876 5876 5877 5877 5878 5881 5883 5884 5886 5886 5887 5888 5889 5889 5889 5890 5890 5890 5890 5890 5890 5891 5892 5893 5893 5894 5894 5895 5895 5895 5896 5896 5895 5894 5894 5894 5895 5894 5893 5892 5891 5890 5889 5888 5887 5885 5883 5882 5881 5879 5877 5876 5874 5871 5869
5863 5864 5865 5866 5867 5869 5870 5872 5872 5873 5874 5875 5876 5878 5880 5882 5883 5884 5885 5886 5887 5887 5887 5888 5888 5888 5888 5888 5888 5889 5890 5891 5891 5892 5892 5893 5893 5893 5893 5894 5893 5892 5891 5891 5891 5892 5891 5890 5889 5888 5887 5885 5884 5882 5880 5879 5878 5876 5874 5873 5871 5869 5866
5860 5861 5861 5863 5865 5865 5866 5867 5869 5869 5869 5871 5873 5875 5877 5879 5880 5882 5883 5884 5885 5885 5885 5886 5886 5887 5886 5886 5886 5887 5888 5888 5889 5889 5890 5891 5891 5891 5891 5891 5891 5891 5889 5888 5888 5888 5889 5888 5886 5885 5883 5882 5881 5879 5877 5876 5874 5873 5871 5869 5867 5865 5863
5857 5858 5859 5859 5861 5862 5862 5863 5865 5866 5866 5868 5870 5872 5874 5876 5877 5879 5880 5881 5882 5882 5883 5883 5884 5885 5884 5884 5884 5886 5886 5886 5887 5887 5888 5888 5889 5889 5889 5889 5889 5889 5888 5887 5885 5885 5885 5885 5884 5882 5880 5879 5878 5876 5874 5873 5871 5869 5867 5865 5863 5861 5859
5855 5855 5855 5856 5858 5859 5860 5860 5861 5863 5863 5865 5867 5869 5870 5873 5874 5876 5877 5878 5879 5879 5880 5881 5882 5883 5883 5882 5883 5884 5884 5884 5885 5885 5886 5886 5886 5886 5886 5886 5886 5886 5886 5885 5884 5883 5882 5882 5881 5880 5878 5876 5874 5873 5871 5869 5868 5865 5863 5861 5860 5858 5856
5850 5852 5852 5854 5856 5857 5858 5858 5858 5859 5861 5862 5864 5866 5868 5869 5871 5872 5874 5875 5876 5876 5878 5878 5879 5880 5881 5880 5880 5882 5882 5882 5883 5883 5883 5884 5884 5884 5884 5884 5883 5883 5883 5883 5882 5881 5880 5880 5879 5878 5876 5874 5871 5869 5868 5866 5864 5862 5860 5858 5857 5855 5853
5843 5847 5848 5849 5852 5853 5854 5854 5854 5856 5858 5859 5861 5862 5864 5866 5868 5869 5870 5871 5873 5873 5875 5876 5876 5877 5878 5878 5878 5879 5880 5880 5880 5881 5881 5882 5882 5882 5881 5881 5881 5880 5880 5879 5879 5878 5877 5876 5876 5876 5874 5872 5869 5866 5864 5863 5861 5858 5856 5854 5852 5851 5850
5840 5842 5844 5846 5848 5849 5849 5850 5851 5853 5855 5856 5858 5859 5861 5863 5865 5866 5867 5868 5870 5870 5872 5874 5874 5875 5875 5876 5876 5876 5877 5878 5878 5879 5879 5880 5880 5880 5879 5878 5878 5877 5876 5876 5875 5874 5873 5872 5872 5872 5871 5870 5867 5863 5861 5860 5857 5854 5852 5849 5847 5846 5846
5837 5838 5839 5841 5844 5844 5846 5847 5849 5851 5852 5854 5855 5856 5857 5859 5861 5862 5864 5865 5867 5867 5869 5870 5871 5872 5872 5873 5873 5874 5875 5875 5876 5876 5877 5877 5877 5877 5877 5876 5875 5874 5873 5872 5871 5871 5870 5868 5868 5867 5867 5866 5864 5860 5858 5856 5854 5850 5847 5845 5844 5843 5842
5833 5835 5833 5834 5838 5840 5841 5843 5845 5848 5849 5851 5852 5853 5855 5856 5857 5858 5860 5862 5863 5864 5865 5867 5869 5869 5869 5870 5870 5871 5872 5873 5873 5874 5874 5874 5874 5874 5874 5873 5872 5871 5870 5869 5868 5867 5866 5865 5863 5862 5861 5860 5859 5856 5854 5852 5850 5846 5843 5841 5840 5839 5838
5828 5830 5829 5828 5831 5834 5837 5840 5842 5844 5846 5847 5849 5851 5852 5853 5854 5855 5857 5858 5859 5861 5862 5864 5865 5866 5866 5867 5868 5869 5870 5870 5871 5871 5871 5871 5871 5871 5871 5870 5869 5868 5867 5866 5865 5864 5862 5861 5860 5858 5856 5855 5854 5852 5849 5848 5846 5842 5839 5837 5836 5835 5834
5822 5825 5825 5825 5827 5829 5833 5837 5839 5840 5842 5844 5845 5847 5848 5849 5851 5852 5853 5854 5856 5857 5858 5860 5862 5863 5863 5864 5865 5866 5867 5867 5867 5867 5868 5868 5868 5867 5867 5867 5866 5865 5864 5862 5861 5860 5858 5857 5855 5854 5852 5851 5849 5847 5845 5844 5842 5838 5835 5834 5833 5831 5830
5817 5819 5820 5822 5824 5825 5827 5831 5835 5837 5839 5840 5841 5843 5844 5846 5847 5848 5849 5851 5852 5853 5855 5857 5859 5860 5860 5861 5862 5863 5863 5864 5864 5864 5864 5864 5864 5863 5863 5863 5862 5861 5860 5859 5857 5856 5855 5853 5851 5850 5848 5846 5845 5843 5841 5839 5837 5834 5832 5830 5829 5827 5826
5811 5812 5814 5816 5819 5820 5821 5824 5829 5833 5835 5835 5836 5838 5841 5842 5843 5844 5846 5847 5848 5850 5851 5853 5855 5856 5857 5858 5859 5859 5860 5860 5860 5860 5860 5860 5860 5859 5859 5858 5858 5857 5856 5855 5853 5852 5851 5849 5847 5845 5843 5842 5840 5838 5836 5835 5833 5830 5828 5827 5826 5824 5823
5804 5806 5807 5809 5812 5814 5815 5816 5820 5825 5829 5830 5831 5833 5835 5837 5838 5840 5841 5843 5844 5846 5847 5849 5851 5852 5853 5854 5854 5855 5855 5855 5855 5855 5855 5855 5855 5855 5855 5854 5854 5853 5852 5850 5849 5847 5846 5845 5843 5841 5839 5837 5835 5833 5831 5829 5827 5826 5825 5824 5822 5820 5819
5798 5799 5800 5802 5805 5807 5809 5809 5812 5818 5823 5824 5825 5827 5830 5832 5833 5835 5836 5838 5840 5842 5843 5845 5847 5848 5849 5850 5850 5850 5851 5851 5851 5851 5850 5851 5851 5851 5851 5850 5849 5849 5847 5846 5844 5843 5842 5840 5838 5837 5835 5832 5830 5828 5825 5823 5822 5821 5820 5820 5818 5816 5815
5790 5792 5792 5794 5797 5799 5801 5803 5807 5812 5816 5818 5820 5822 5824 5826 5828 5829 5831 5833 5835 5837 5839 5840 5842 5843 5844 5845 5845 5846 5846 5847 5847 5846 5846 5846 5847 5847 5847 5846 5845 5844 5843 5841 5840 5839 5837 5835 5833 5832 5830 5827 5825 5823 5821 5819 5817 5816 5815 5815 5814 5811 5810
5783 5784 5785 5787 5788 5789 5794 5798 5802 5806 5809 5811 5813 5816 5817 5819 5822 5823 5825 5827 5829 5832 5834 5836 5837 5838 5839 5840 5841 5842 5843 5843 5843 5842 5842 5842 5842 5842 5842 5841 5840 5839 5838 5837 5836 5834 5832 5830 5828 5826 5824 5822 5820 5818 5816 5815 5813 5811 5810 5810 5808 5805 5804
5775 5776 5778 5780 5780 5782 5789 5794 5795 5798 5801 5803 5806 5808 5810 5814 5816 5818 5819 5821 5824 5827 5829 5831 5832 5834 5835 5836 5837 5837 5838 5838 5838 5838 5837 5836 5836 5837 5838 5837 5836 5835 5833 5832 5831 5829 5827 5825 5823 5821 5819 5817 5816 5813 5811 5810 5808 5807 5805 5804 5802 5800 5798
5767 5768 5771 5774 5775 5778 5784 5787 5788 5790 5793 5796 5798 5801 5804 5808 5810 5812 5813 5816 5819 5822 5824 5826 5827 5829 5830 5831 5832 5833 5833 5833 5833 5833 5832 5831 5830 5831 5832 5832 5830 5830 5828 5826 5826 5824 5822 5820 5818 5816 5814 5812 5810 5809 5807 5805 5804 5802 5800 5799 5797 5795 5793
5763 5764 5765 5768 5769 5772 5776 5779 5780 5782 5785 5787 5790 5793 5797 5801 5804 5805 5808 5810 5813 5816 5819 5820 5822 5823 5824 5826 5827 5828 5829 5828 5828 5828 5828 5826 5825 5826 5826 5826 5825 5824 5823 5821 5820 5818 5816 5814 5812 5811 5809 5807 5805 5804 5802 5801 5799 5797 5796 5794 5792 5790 5789
5758 5758 5759 5763 5764 5765 5767 5770 5772 5774 5776 5779 5783 5786 5790 5794 5797 5799 5802 5805 5809 5812 5813 5815 5816 5818 5819 5821 5822 5823 5823 5823 5823 5823 5823 5822 5821 5820 5820 5820 5819 5819 5818 5816 5814 5813 5811 5809 5807 5806 5804 5802 5800 5798 5797 5796 5794 5792 5791 5788 5786 5785 5784
5751 5750 5752 5754 5756 5757 5758 5760 5762 5764 5768 5771 5775 5780 5784 5787 5790 5793 5797 5801 5804 5806 5808 5809 5811 5813 5815 5816 5817 5818 5818 5818 5819 5818 5817 5816 5815 5814 5814 5815 5814 5813 5812 5810 5808 5807 5806 5804 5802 5801 5799 5797 5795 5793 5791 5790 5789 5787 5786 5784 5782 5780 5778
5746 5745 5746 5746 5746 5748 5750 5751 5753 5755 5759 5764 5769 5773 5777 5781 5785 5788 5792 5795 5797 5799 5801 5804 5806 5808 5810 5811 5812 5812 5813 5813 5813 5813 5812 5812 5811 5809 5807 5808 5809 5808 5806 5804 5802 5801 5800 5798 5797 5795 5793 5792 5790 5788 5786 5785 5783 5781 5780 5778 5776 5774 5772
5742 5742 5743 5744 5744 5744 5745 5745 5745 5748 5751 5755 5760 5765 5771 5776 5779 5782 5785 5788 5791 5794 5796 5799 5801 5803 5804 5805 5806 5806 5806 5807 5807 5808 5808 5808 5806 5803 5800 5801 5803 5802 5800 5799 5797 5795 5794 5793 5791 5790 5788 5786 5784 5782 5781 5779 5776 5775 5774 5773 5771 5769 5767
5737 5738 5739 5742 5743 5745 5747 5747 5746 5746 5747 5749 5753 5760 5766 5770 5773 5776 5780 5784 5787 5789 5792 5794 5796 5797 5798 5799 5800 5800 5800 5802 5803 5804 5805 5803 5801 5799 5797 5797 5797 5796 5795 5793 5791 5790 5789 5787 5785 5784 5782 5780 5779 5777 5774 5772 5769 5768 5767 5766 5765 5763 5761
5729 5730 5733 5736 5739 5742 5746 5747 5745 5744 5744 5746 5752 5758 5763 5767 5770 5774 5777 5780 5782 5785 5787 5788 5790 5791 5792 5793 5794 5794 5796 5798 5799 5800 5799 5797 5795 5794 5793 5792 5792 5790 5789 5787 5786 5784 5783 5782 5780 5778 5776 5774 5773 5771 5767 5765 5762 5760 5759 5759 5758 5756 5754
5722 5722 5726 5729 5732 5735 5738 5739 5740 5741 5743 5746 5751 5756 5760 5764 5767 5770 5773 5776 5778 5779 5781 5783 5784 5785 5786 5787 5789 5790 5791 5793 5794 5794 5792 5791 5790 5789 5787 5787 5786 5785 5783 5781 5780 5778 5777 5776 5775 5773 5771 5770 5768 5766 5762 5760 5757 5755 5754 5753 5752 5750 5748
5719 5718 5720 5723 5725 5729 5732 5735 5738 5740 5743 5747 5751 5754 5758 5761 5763 5766 5769 5771 5772 5773 5775 5776 5777 5778 5779 5782 5784 5785 5785 5786 5787 5787 5786 5785 5784 5783 5782 5781 5780 5778 5777 5775 5774 5773 5771 5770 5768 5767 5766 5765 5764 5763 5760 5758 5755 5752 5750 5748 5745 5743 5742